Volver al catálogo

STARLINK-31821

ActivoComunicacionesVLEO
NORAD 59737·PAYLOAD·🇺🇸 United States

Lanzado May 13, 2024 desde Cape Canaveral Space Force Station

Loading…

Próximos Pases (próximas 24 horas)

TLE

ActualizadoSource: CelesTrak SupGP

Época: Sep 14, 2026, 22:23 UTC

1 59737C 24090H   26257.93312500 -.00012431  00000+0 -45020-3 0  2574
2 59737  43.0026 194.8369 0001303 266.4826  16.2750 15.27589174    10

Sigue STARLINK-31821 en tiempo real con AllMySat

Download on the App Store